Wind_Speed
24 18 13 9 9 10 11 14 10 4 5 7 5 5 1 3 6 9 10 11 13 12 13 12 13 14 19 20 20 20 21 21 22 24 24 25 28 29
23 19 15 11 11 12 12 14 9 8 4 5 7 7 2 2 6 9 11 11 13 12 13 11 13 17 19 19 19 19 21 21 22 23 25 27 28 29
22 20 17 16 15 14 13 12 11 8 9 5 8 7 2 3 6 10 12 13 14 11 11 12 16 17 17 18 19 20 21 20 21 24 25 26 27 28
26 23 21 19 17 15 13 12 10 8 8 11 9 5 2 4 8 11 13 14 13 12 16 15 15 16 17 18 19 19 18 20 22 23 24 25 27 29
28 27 26 23 20 16 14 12 11 11 8 12 9 5 2 6 8 10 12 16 8 13 19 17 17 18 20 19 20 19 19 22 22 23 24 25 28 29
29 28 26 23 20 18 15 13 13 15 15 14 11 6 3 5 9 13 11 16 9 16 19 16 15 19 22 22 22 18 21 22 23 24 24 27 28 28
30 28 24 21 18 16 15 15 14 15 13 11 8 6 3 4 7 8 8 12 11 19 22 19 21 23 27 27 26 22 23 23 23 25 27 27 27 29
34 28 25 22 20 18 17 15 11 13 13 9 7 7 4 3 5 6 8 9 7 15 22 22 24 26 26 29 26 22 24 25 26 28 27 27 28 29
36 33 28 23 22 20 18 16 14 12 9 8 10 8 5 4 5 6 8 7 6 13 15 15 26 28 26 32 21 25 25 29 28 28 28 28 29 29
35 33 31 29 25 24 23 20 15 12 11 10 8 9 7 5 6 7 9 11 10 10 9 8 16 23 35 25 20 27 29 28 28 29 29 30 29 30
33 31 30 28 26 23 22 21 18 15 12 10 9 8 7 4 6 7 9 13 9 6 7 11 13 24 22 17 18 28 30 30 29 30 31 30 31 31
32 29 27 26 24 21 20 19 18 14 12 11 8 7 6 5 6 9 9 7 6 6 5 12 17 19 12 9 30 25 30 30 32 29 30 31 31 32
34 31 26 23 22 21 16 15 13 15 13 11 10 8 7 6 7 8 8 8 6 6 7 11 13 14 13 24 27 22 22 35 31 28 29 29 30 30
33 34 28 24 21 18 16 16 16 15 13 12 10 8 7 5 7 8 8 9 9 7 10 9 11 15 17 23 16 29 30 31 24 26 33 34 30 28
34 33 29 25 22 18 18 16 14 13 13 12 10 8 5 6 7 10 10 14 10 8 11 13 14 21 18 18 23 30 33 31 21 31 32 34 32 30
33 32 30 26 23 20 17 14 12 12 12 11 9 6 4 6 8 12 14 17 17 15 14 17 17 18 24 21 25 30 26 20 34 31 31 35 35 26
38 34 30 27 22 18 15 13 12 11 10 9 7 4 4 6 9 12 14 16 13 15 23 24 23 23 22 26 26 26 27 28 28 31 30 31 36 31
35 33 26 23 19 16 15 14 12 10 8 7 5 3 4 8 10 12 14 14 13 16 19 22 26 27 26 21 13 22 22 27 32 30 27 26 30 37
35 27 27 23 19 17 16 14 12 10 7 6 4 3 5 8 10 13 15 13 14 16 20 21 22 21 21 11 24 15 26 32 30 31 27 24 29 36
30 29 26 23 21 18 16 13 11 9 7 6 4 3 5 7 11 13 12 12 15 18 20 20 19 21 20 21 27 34 32 27 26 29 32 31 28 27
27 25 24 23 21 18 15 12 10 8 8 7 4 3 5 8 10 11 10 13 16 16 18 20 23 21 23 23 21 26 31 33 27 26 28 28 25 25
24 24 23 22 20 16 14 11 10 8 9 6 3 3 5 8 9 10 11 15 17 17 20 24 24 24 21 19 22 27 30 33 34 32 23 15 20 15
24 23 22 19 16 14 12 10 8 7 8 5 1 4 6 9 10 13 15 17 19 18 20 24 22 21 21 20 23 25 27 31 28 31 36 28 26 28
Wind_Direction
204 206 212 221 218 203 198 182 152 157 182 190 177 197 250 357 11 8 6 6 1 2 359 360 356 350 344 346 342 340 338 338 334 332 330 329 326 322
205 208 212 209 198 192 187 185 187 157 136 161 188 180 173 5 5 3 360 4 2 358 358 5 360 346 346 345 346 343 341 337 335 334 331 328 326 323
200 202 201 191 181 172 173 176 170 165 126 138 153 164 137 9 6 6 360 4 358 1 15 2 351 351 352 351 346 345 340 338 338 334 333 331 329 326
193 190 184 176 171 165 163 160 153 149 141 135 144 148 131 10 2 11 10 9 3 28 11 2 360 357 357 351 346 341 339 340 337 336 333 332 329 325
195 190 182 174 169 162 161 149 134 126 126 135 129 136 125 2 7 11 17 16 30 23 11 10 10 7 4 354 346 345 342 336 337 333 330 328 326 325
191 189 181 173 171 164 157 143 128 117 114 117 114 119 81 18 12 5 7 11 20 9 16 4 6 3 1 357 351 343 336 332 331 328 326 324 323 322
182 181 174 170 170 166 161 145 133 125 123 116 114 114 82 44 22 360 354 1 11 1 351 3 353 355 353 354 351 342 331 329 327 328 327 325 324 322
174 170 165 162 157 151 141 134 131 136 131 129 130 126 113 63 25 12 9 13 5 356 342 347 348 346 344 347 347 338 332 331 330 328 327 326 324 322
173 167 160 159 159 148 132 131 132 126 125 134 138 124 117 68 31 22 19 9 337 346 341 325 346 338 341 341 349 342 333 332 331 328 327 327 324 322
174 171 167 163 161 157 144 132 123 119 118 115 111 102 90 65 39 24 11 354 355 358 344 297 324 325 336 336 345 339 333 332 331 329 329 327 324 321
172 172 170 161 161 159 152 140 128 122 113 106 106 104 92 66 32 28 21 11 360 348 341 318 317 326 326 331 332 332 342 337 336 332 328 326 324 322
166 164 166 162 162 161 158 150 142 145 142 138 121 96 83 67 36 24 20 9 349 320 314 325 329 352 323 309 327 333 335 339 336 336 331 324 323 323
154 155 158 155 156 161 164 156 147 144 144 128 111 99 87 67 35 11 3 355 329 289 325 338 316 327 317 316 322 331 334 329 327 323 322 321 323 322
153 153 152 151 147 154 156 139 145 146 134 123 116 107 95 56 22 8 0 357 345 321 350 335 287 316 313 313 319 320 326 326 324 323 323 323 324 326
156 151 145 142 138 133 132 138 146 141 133 129 123 109 75 42 15 11 3 358 3 4 2 351 332 330 315 297 301 311 318 327 328 327 328 323 321 322
140 138 141 147 143 140 140 144 141 140 137 129 115 103 71 39 19 8 7 3 358 351 355 354 346 332 321 312 308 303 311 314 321 324 325 324 326 325
137 140 145 146 146 147 144 143 144 140 132 121 111 99 55 27 22 14 11 6 356 343 344 347 344 340 338 331 305 306 313 320 322 322 325 320 322 325
147 148 149 154 152 157 153 151 150 144 135 123 121 89 40 22 16 12 9 2 345 345 340 334 337 340 337 336 316 313 316 321 324 325 326 321 318 326
155 154 157 159 161 162 160 159 155 155 148 135 132 77 40 23 12 8 4 355 347 340 336 339 340 339 329 327 325 325 321 323 324 324 327 323 313 314
158 158 159 166 167 161 162 160 158 156 152 142 123 67 30 11 6 3 356 346 342 338 334 340 336 331 316 315 312 316 342 321 324 321 322 322 313 312
157 157 166 168 164 162 158 158 158 154 154 143 104 41 12 359 347 348 334 339 341 342 329 327 323 326 320 320 317 320 328 344 336 321 320 320 320 321
157 165 167 165 163 161 159 159 158 161 162 143 92 20 2 351 336 325 332 339 342 335 326 321 324 324 326 323 316 317 321 332 348 347 334 319 314 314
163 162 162 164 164 163 163 163 161 162 169 162 87 3 346 330 328 336 343 344 340 331 327 325 323 324 324 324 323 321 326 329 332 331 339 348 333 330
Height
880 884 887 888 890 891 893 895 897 906 911 915 916 916 916 916 914 913 911 909 907 905 903 901 900 898 895 891 889 886 883 879 876 872 868 863 859 855
878 882 884 886 888 890 891 893 894 896 905 910 913 914 915 914 914 913 912 908 906 904 902 898 896 894 892 889 886 883 879 876 872 869 865 860 856 851
875 879 882 884 886 889 891 892 893 895 900 908 911 913 915 916 913 912 911 908 904 902 900 897 894 892 889 887 884 880 877 873 870 866 862 857 853 849
871 875 878 882 886 888 891 892 893 893 897 904 910 913 915 914 913 910 910 908 903 902 900 895 893 890 885 884 882 878 874 871 867 864 860 855 850 846
868 872 876 879 885 888 892 893 892 894 897 900 908 912 913 913 911 908 907 905 903 900 897 894 891 889 885 881 878 874 871 870 864 860 856 852 847 841
865 871 875 878 883 888 891 893 894 895 900 903 906 909 912 911 910 909 908 904 901 898 896 893 889 887 883 879 875 872 869 866 861 857 852 847 842 837
864 871 873 877 882 886 890 892 894 897 901 903 906 908 910 910 909 909 908 904 902 899 896 892 886 882 881 875 871 868 866 863 858 853 847 842 837 832
861 868 872 876 881 885 888 892 895 897 899 902 905 906 908 908 908 907 905 903 903 903 896 892 887 879 875 872 869 867 862 858 853 847 842 836 832 827
859 863 869 876 881 884 888 892 895 896 899 902 903 903 905 905 906 905 904 903 903 901 897 891 885 878 873 869 866 863 858 853 847 842 837 831 827 822
858 862 867 875 879 882 886 890 894 897 899 901 903 901 903 905 904 902 902 901 899 898 897 894 887 878 870 867 864 860 854 848 843 837 831 826 821 817
858 863 868 874 879 882 885 888 892 897 899 902 904 903 902 904 903 902 900 898 897 898 896 895 884 878 870 864 861 855 848 843 837 832 826 822 817 811
859 866 872 875 879 883 886 888 891 895 898 900 902 902 902 903 903 902 900 900 900 897 897 894 883 879 872 865 859 853 846 840 835 829 823 818 813 806
857 864 871 877 881 884 888 889 891 895 898 898 899 900 902 903 903 902 900 899 898 897 895 891 885 884 879 867 856 851 846 838 833 827 820 815 809 804
856 860 871 877 881 885 889 889 892 895 895 896 899 901 901 902 902 901 900 898 896 894 892 890 886 882 878 869 859 848 843 837 831 824 816 809 803 798
856 862 870 876 882 888 888 892 894 894 894 896 898 899 901 900 901 900 899 896 894 892 889 886 883 878 875 869 861 849 841 832 828 823 813 805 799 792
859 867 871 878 882 886 889 891 893 894 895 897 897 899 900 900 900 898 896 893 890 888 885 883 880 876 870 864 858 847 843 837 825 820 813 802 794 790
857 865 872 878 883 886 889 891 894 894 895 895 897 900 900 900 899 898 895 892 891 887 881 877 875 872 867 860 853 847 840 833 826 818 810 801 791 786
860 865 873 878 882 885 887 890 893 893 895 895 897 899 899 899 897 896 895 892 889 885 881 877 871 865 861 859 852 845 839 833 823 815 809 802 790 781
858 867 872 877 881 884 887 889 891 892 893 894 896 898 898 897 896 894 892 890 887 884 879 875 870 867 861 854 849 844 839 828 821 812 807 801 792 780
860 865 871 876 880 883 886 888 890 892 893 894 896 897 897 897 895 893 891 890 886 882 876 873 871 868 864 857 848 837 834 827 821 811 802 794 788 779
861 866 872 876 880 884 886 888 890 891 893 894 895 896 896 895 894 892 891 888 884 879 876 873 870 866 861 854 846 837 828 825 819 812 803 794 783 774
863 868 873 877 880 882 885 888 889 891 893 893 894 895 895 894 893 891 888 884 880 878 875 871 866 861 857 851 844 836 826 818 811 805 802 797 789 779
865 870 875 879 882 883 885 887 888 889 891 892 894 894 894 893 891 888 885 882 879 877 873 868 864 859 854 849 843 834 826 817 809 801 792 790 785 778